Stations météo

réclame
Mon MeteoGroup
Fehmarn, Allemagne (10055): Température de l'air & dewpoint: 13.06.2019 11:00:00 - 19.06.2019 11:00:00 (CEST)Fehmarn, Allemagne (10055): Température de l'air 5cm & Température de l'air -5cm: 13.06.2019 11:00:00 - 19.06.2019 11:00:00 (CEST)Fehmarn, Allemagne (10055): Température de l'air -20cm & Température de l'air -100cm: 13.06.2019 11:00:00 - 19.06.2019 11:00:00 (CEST)Fehmarn, Allemagne (10055): Vitesse du vent & gusts: 13.06.2019 11:00:00 - 19.06.2019 11:00:00 (CEST)Fehmarn, Allemagne (10055): Direction du vent: 13.06.2019 11:00:00 - 19.06.2019 11:00:00 (CEST)Fehmarn, Allemagne (10055): reduced air pressure: 13.06.2019 11:00:00 - 19.06.2019 11:00:00 (CEST)Fehmarn, Allemagne (10055): visibility: 13.06.2019 11:00:00 - 19.06.2019 11:00:00 (CEST)Fehmarn, Allemagne (10055): Ensoleillement: 13.06.2019 11:00:00 - 19.06.2019 11:00:00 (CEST)Fehmarn, Allemagne (10055): Quantités de précipitations: 13.06.2019 11:00:00 - 19.06.2019 11:00:00 (CEST)
Date & Time tt [°C] td [°C] tt 5cm [°C] tt -5cm [°C] tt -20cm [°C] tt -100cm [°C] ff [km/h] ff [knt] fx [km/h] fx [knt] dd ppp [hPa] vv [km] sd [min] rr [mm]
19.06.2019 11:00:00 19,6 16,1 23,4 25,4 20,2 16,2 14 8 18 10 NE 1009,9 9 57 0,0
19.06.2019 10:00:00 19,5 14,8 21,7 22,5 20,0 16,1 6 3 21 12 NNE 1010,3 25 27 0,0
19.06.2019 09:00:00 20,8 15,5 22,0 20,8 19,9 16,1 11 6 21 11 SE 1010,1 24 26 0,0
19.06.2019 08:00:00 20,4 14,9 20,2 20,2 19,9 16,1 12 6 23 13 SSE 1010,2 16 60 0,0
19.06.2019 07:00:00 19,0 15,4 19,1 18,6 20,1 16,1 11 6 22 12 SE 1010,3 13 60 0,0
19.06.2019 06:00:00 16,5 14,5 15,9 17,3 20,5 16,0 15 8 21 11 SE 1010,7 12 22 0,0
19.06.2019 05:00:00 16,1 14,4 14,9 17,5 20,9 16,0 14 8 21 11 SE 1011,0 17 0 0,0
19.06.2019 04:00:00 16,6 15,0 15,4 18,1 21,3 16,0 12 7 23 12 ESE 1011,5 13 0 0,0
19.06.2019 03:00:00 17,9 15,6 16,5 18,7 21,8 16,0 16 9 26 14 ESE 1011,9 28 0 0,0
19.06.2019 02:00:00 17,6 15,2 16,3 19,5 22,3 16,0 16 8 22 12 ESE 1012,2 25 0 0,0
19.06.2019 01:00:00 18,1 15,6 17,1 20,3 22,8 16,0 11 6 26 14 ENE 1012,9 19 0 1,5
19.06.2019 00:00:00 18,9 15,5 17,1 21,2 23,2 16,0 14 7 37 20 NNE 1013,6 9 0 1,6
18.06.2019 23:00:00 19,1 15,0 18,9 22,6 23,7 15,9 14 8 30 16 SSW 1014,7 25 0 0,0
18.06.2019 22:00:00 19,0 15,1 18,9 23,4 24,2 15,9 18 10 34 18 NNW 1013,3 26 0 0,0
18.06.2019 21:00:00 18,6 14,5 18,7 24,7 24,6 15,9 14 7 30 16 N 1013,3 35 0 0,0
18.06.2019 20:00:00 20,1 15,2 20,2 26,8 24,8 15,9 27 15 44 24 NW 1013,8 23 0 0,0
18.06.2019 19:00:00 24,3 16,7 24,7 29,2 24,8 15,9 7 4 19 11 ESE 1013,4 24 21 0,0
18.06.2019 18:00:00 26,0 16,4 27,2 31,9 24,5 15,9 14 8 21 11 ESE 1013,4 23 60 0,0
18.06.2019 17:00:00 26,2 17,0 28,5 32,5 24,0 15,9 14 7 29 16 ESE 1014,0 16 60 0,0
18.06.2019 16:00:00 27,0 15,5 29,2 33,1 23,3 15,8 15 8 28 15 SE 1014,6 11 60 0,0
18.06.2019 15:00:00 26,4 15,7 29,2 32,8 22,5 15,8 16 9 27 15 SSE 1015,4 9 59 0,0
18.06.2019 14:00:00 25,8 17,2 29,4 31,3 21,7 15,8 15 8 27 15 SSE 1016,0 10 51 0,0
18.06.2019 13:00:00 24,5 16,7 27,9 30,2 21,0 15,8 19 10 29 16 SSE 1016,4 8 49 0,0
18.06.2019 12:00:00 23,2 17,1 26,1 28,3 20,3 15,8 17 9 29 16 SSE 1016,8 8 51 0,0
18.06.2019 11:00:00 22,5 16,5 25,7 26,6 19,7 15,8 19 10 29 16 SSE 1016,9 6 60 0,0
18.06.2019 10:00:00 21,1 15,8 24,1 23,9 19,3 15,7 18 10 32 17 SSE 1017,2 7 43 0,0
18.06.2019 09:00:00 19,7 14,9 21,7 21,4 19,1 15,7 19 11 33 18 SSE 1017,3 7 46 0,0
18.06.2019 08:00:00 19,0 14,3 20,4 20,3 19,0 15,7 19 10 34 18 SSE 1017,7 8 56 0,0
18.06.2019 07:00:00 18,1 13,2 19,0 18,2 19,2 15,7 19 10 33 18 SSE 1017,9 13 42 0,0
18.06.2019 06:00:00 16,5 12,6 15,8 17,2 19,5 15,7 16 9 27 14 SE 1018,2 26 0 0,0
18.06.2019 05:00:00 16,8 12,5 15,8 17,2 19,8 15,7 16 9 32 17 SSE 1018,4 35 0 0,0
18.06.2019 04:00:00 16,9 12,9 16,0 17,5 20,2 15,6 16 9 26 14 SSE 1018,9 38 0 0,0
18.06.2019 03:00:00 15,5 12,8 14,5 17,5 20,6 15,6 14 8 22 12 SE 1019,3 38 0 0,0
18.06.2019 02:00:00 15,5 12,6 14,6 18,0 21,1 15,6 16 9 22 12 SE 1019,5 36 0 0,0
18.06.2019 01:00:00 15,5 13,0 14,5 18,6 21,6 15,6 15 8 23 12 SE 1019,8 31 0 0,0
18.06.2019 00:00:00 14,5 11,9 13,4 19,4 22,2 15,6 14 8 18 10 SE 1019,9 15 0 0,0
17.06.2019 23:00:00 14,9 12,4 13,7 20,6 22,8 15,6 11 6 13 7 ESE 1020,0 10 0 0,0
17.06.2019 22:00:00 15,8 12,7 14,6 22,1 23,2 15,6 10 5 17 9 ESE 1020,1 16 18 0,0
17.06.2019 21:00:00 18,1 12,7 18,1 24,0 23,6 15,6 13 7 22 12 ESE 1020,2 19 60 0,0
17.06.2019 20:00:00 19,6 12,7 20,6 26,2 23,7 15,6 15 8 22 12 ESE 1020,5 17 60 0,0
17.06.2019 19:00:00 21,0 13,2 22,5 28,7 23,6 15,6 13 7 23 12 ESE 1020,8 11 60 0,0
17.06.2019 18:00:00 21,7 13,6 23,9 30,4 23,3 15,6 16 9 26 14 E 1021,0 9 60 0,0
17.06.2019 17:00:00 21,1 13,9 23,6 31,6 22,8 15,6 17 9 24 13 ENE 1021,5 8 60 0,0
17.06.2019 16:00:00 21,5 12,9 24,6 32,4 22,1 15,6 14 7 16 9 ENE 1021,9 12 60 0,0
17.06.2019 15:00:00 21,3 13,1 25,3 32,4 21,2 15,6 10 6 17 9 ENE 1022,1 17 60 0,0
17.06.2019 14:00:00 21,4 11,8 25,6 31,4 20,3 15,6 7 4 18 10 WNW 1022,1 15 59 0,0
17.06.2019 13:00:00 21,8 12,4 25,6 29,7 19,4 15,6 14 7 21 11 W 1022,2 7 60 0,0
17.06.2019 12:00:00 21,0 11,0 25,3 27,3 18,6 15,5 13 7 21 12 SW 1022,3 11 59 0,0
17.06.2019 11:00:00 21,2 11,1 26,2 24,6 18,0 15,5 13 7 24 13 SW 1022,4 7 59 0,0
17.06.2019 10:00:00 20,2 11,1 24,4 22,5 17,6 15,5 12 7 16 9 WSW 1022,4 32 60 0,0
17.06.2019 09:00:00 19,7 12,2 24,3 20,6 17,2 15,5 6 3 11 6 SW 1022,1 19 60 0,0
17.06.2019 08:00:00 18,2 12,7 21,9 18,5 17,1 15,5 8 4 12 7 SSW 1021,9 19 60 0,0
17.06.2019 07:00:00 17,0 14,7 19,4 16,7 17,2 15,5 8 4 12 7 SSW 1021,6 9 60 0,0
17.06.2019 06:00:00 15,9 14,8 15,9 15,3 17,4 15,5 9 5 15 8 WSW 1021,6 4,3 26 0,0
17.06.2019 05:00:00 15,7 14,7 14,7 15,4 17,6 15,5 12 7 21 11 W 1021,3 4,3 0 0,0
17.06.2019 04:00:00 15,9 14,6 15,0 15,7 17,9 15,5 15 8 22 12 W 1021,3 7 0 0,0
17.06.2019 03:00:00 15,9 15,0 15,0 16,0 18,2 15,5 16 9 25 14 W 1021,0 6 0 0,0
17.06.2019 02:00:00 16,4 15,5 15,6 16,5 18,4 15,5 21 12 26 14 W 1020,8 6 0 0,0
17.06.2019 01:00:00 16,4 13,6 15,7 17,0 18,7 15,5 8 5 16 9 SSW 1020,8 26 0 0,0
17.06.2019 00:00:00 15,7 13,4 15,2 17,4 19,0 15,5 9 5 11 6 S 1021,0 19 0 0,0
16.06.2019 23:00:00 15,9 13,2 15,4 17,7 19,4 15,5 6 3 11 6 SSE 1020,7 20 0 0,0
16.06.2019 22:00:00 17,4 13,7 16,7 18,6 19,6 15,5 11 6 19 10 NNW 1020,5 32 0 0,0
16.06.2019 21:00:00 17,1 13,0 16,6 19,6 19,8 15,5 10 5 14 8 ESE 1020,2 37 16 0,0
16.06.2019 20:00:00 19,3 12,9 20,0 21,3 19,9 15,5 9 5 13 7 E 1020,2 40 60 0,0
16.06.2019 19:00:00 19,5 11,7 21,2 23,0 19,7 15,5 10 6 14 7 ENE 1020,1 14 60 0,0
16.06.2019 18:00:00 20,3 10,3 22,3 24,2 19,5 15,5 4 2 10 5 NNW 1020,2 28 59 0,0
16.06.2019 17:00:00 19,6 11,6 21,9 23,6 19,3 15,5 5 3 10 5 WNW 1020,4 28 25 0,0
16.06.2019 16:00:00 18,6 11,6 20,4 22,7 19,0 15,5 8 4 13 7 W 1020,6 37 5 0,0
16.06.2019 15:00:00 18,8 12,8 21,2 23,6 18,6 15,5 10 6 16 8 W 1020,4 22 35 0,0
16.06.2019 14:00:00 18,8 13,0 22,6 24,6 18,0 15,5 13 7 16 9 W 1020,1 9 60 0,0
16.06.2019 13:00:00 18,0 13,1 21,7 23,1 17,4 15,5 13 7 21 12 W 1019,7 11 58 0,0
16.06.2019 12:00:00 17,5 13,0 21,3 21,7 16,9 15,5 19 11 29 16 WSW 1019,4 5 60 0,0
16.06.2019 11:00:00 16,7 12,1 19,5 20,4 16,5 15,5 26 14 32 17 W 1018,8 4,7 60 0,0
16.06.2019 10:00:00 16,3 12,6 18,7 18,8 16,2 15,5 26 14 32 18 W 1018,4 4,9 60 0,0
16.06.2019 09:00:00 15,7 12,2 17,7 17,4 16,0 15,5 25 14 31 17 W 1018,3 7 60 0,0
16.06.2019 08:00:00 15,4 12,2 17,0 16,1 16,0 15,5 23 12 35 19 W 1017,8 4,9 58 0,0
16.06.2019 07:00:00 15,3 13,0 16,1 15,0 16,0 15,5 29 15 44 24 W 1017,2 9 31 0,0
16.06.2019 06:00:00 15,1 12,8 15,2 14,4 16,2 15,5 35 19 46 25 W 1016,6 10 21 0,0
16.06.2019 05:00:00 15,2 12,9 14,6 14,3 16,4 15,5 34 18 44 24 W 1015,9 24 0 0,0
16.06.2019 04:00:00 15,4 13,1 14,8 14,4 16,6 15,5 35 19 46 25 W 1015,6 27 0 0,0
16.06.2019 03:00:00 15,5 13,5 15,0 15,0 16,7 15,5 36 19 50 27 W 1015,2 29 0 0,0
16.06.2019 02:00:00 15,7 13,8 15,4 15,3 16,9 15,5 37 20 56 31 W 1014,8 32 0 0,0
16.06.2019 01:00:00 15,7 14,1 15,5 15,7 17,1 15,5 47 25 58 31 W 1014,5 17 0 0,0
16.06.2019 00:00:00 16,5 14,9 16,4 16,3 17,2 15,5 29 16 43 23 W 1014,2 11 0 0,0
15.06.2019 23:00:00 17,1 15,4 16,7 16,5 17,3 15,5 27 15 38 21 W 1013,4 28 0 0,0
15.06.2019 22:00:00 17,2 15,6 16,5 16,6 17,4 15,5 19 10 24 13 W 1012,2 19 15 0,0
15.06.2019 21:00:00 17,3 15,2 17,1 17,2 17,4 15,5 12 6 19 11 SW 1011,3 12 44 0,0
15.06.2019 20:00:00 16,7 14,8 16,7 17,4 17,5 15,5 6 4 24 13 S 1011,3 19 2 0,5
15.06.2019 19:00:00 16,3 13,0 15,3 17,1 17,6 15,5 18 10 38 20 SE 1012,0 7 0 0,0
15.06.2019 18:00:00 18,0 13,3 18,3 18,3 17,6 15,5 24 13 45 24 ESE 1010,9 32 2 0,0
15.06.2019 17:00:00 17,8 13,0 18,1 18,2 17,6 15,5 34 19 51 28 E 1009,9 25 0 0,0
15.06.2019 16:00:00 18,3 13,2 18,9 18,8 17,4 15,5 32 18 51 27 E 1009,5 16 6 0,0
15.06.2019 15:00:00 18,4 13,7 19,9 20,0 17,1 15,5 28 15 50 27 E 1010,0 16 7 0,0
15.06.2019 14:00:00 18,2 13,2 17,9 19,3 16,9 15,5 36 20 53 28 E 1010,1 10 12 0,0
15.06.2019 13:00:00 16,8 14,0 15,9 16,7 16,9 15,4 31 17 56 30 E 1010,2 15 0 0,3
15.06.2019 12:00:00 17,3 15,8 16,4 16,4 17,0 15,4 18 10 41 22 E 1010,9 6 0 2,5
15.06.2019 11:00:00 16,7 16,1 16,4 16,4 17,1 15,4 14 7 20 11 ESE 1012,7 3,4 0 3,9
15.06.2019 10:00:00 16,9 16,0 16,4 16,5 17,1 15,4 14 7 19 11 E 1012,1 4,5 0 2,2
15.06.2019 09:00:00 17,0 15,7 16,3 16,6 17,1 15,4 8 5 24 13 SE 1012,5 6 0 0,6
15.06.2019 08:00:00 18,5 15,5 17,9 16,8 17,2 15,4 13 7 23 12 ESE 1011,9 11 0 0,0
15.06.2019 07:00:00 18,0 15,2 17,7 16,6 17,2 15,4 16 9 25 13 E 1011,8 20 0 0,0
15.06.2019 06:00:00 17,6 15,2 17,2 16,3 17,3 15,4 18 10 31 17 E 1012,6 19 0 0,0
15.06.2019 05:00:00 17,8 15,2 17,3 16,2 17,5 15,4 19 10 29 15 E 1013,0 17 0 0,0
15.06.2019 04:00:00 17,0 14,8 16,1 15,9 17,7 15,4 16 9 23 13 E 1013,7 18 0 0,0
15.06.2019 03:00:00 16,4 14,5 15,5 16,0 17,9 15,4 17 9 28 15 E 1014,5 20 0 0,0
15.06.2019 02:00:00 17,0 14,6 16,2 16,3 18,2 15,4 19 11 33 18 E 1014,9 26 0 0,0
15.06.2019 01:00:00 17,6 14,6 16,6 16,7 18,4 15,4 18 10 29 15 ESE 1015,2 29 0 0,0
15.06.2019 00:00:00 18,2 15,0 17,1 17,1 18,7 15,4 22 12 32 17 ESE 1015,6 29 0 0,0
14.06.2019 23:00:00 18,5 15,4 17,8 17,7 19,0 15,4 19 10 34 18 E 1016,0 30 0 0,0
14.06.2019 22:00:00 18,6 15,8 17,1 18,2 19,2 15,4 19 11 28 15 E 1015,7 23 11 0,0
14.06.2019 21:00:00 18,7 15,1 17,9 19,3 19,4 15,4 7 4 18 10 NNE 1015,7 28 32 0,0
14.06.2019 20:00:00 18,3 15,3 17,6 19,5 19,6 15,4 10 5 45 24 N 1016,3 26 1 1,3
14.06.2019 19:00:00 20,3 14,6 17,5 20,1 19,7 15,4 16 8 42 23 SW 1017,0 13 0 0,3
14.06.2019 18:00:00 21,9 15,2 22,7 22,3 19,8 15,4 14 7 25 14 ESE 1015,5 24 18 0,0
14.06.2019 17:00:00 20,0 15,3 20,2 21,4 19,9 15,4 13 7 28 15 E 1016,2 30 0 0,0
14.06.2019 16:00:00 22,2 15,6 23,0 23,4 19,7 15,4 19 10 29 15 ESE 1016,4 18 15 0,0
14.06.2019 15:00:00 22,7 16,0 24,9 23,9 19,4 15,4 19 10 29 16 ESE 1017,1 17 16 0,0
14.06.2019 14:00:00 23,0 16,0 24,8 25,2 19,0 15,4 18 10 32 17 ESE 1017,4 17 50 0,0
14.06.2019 13:00:00 22,7 13,5 24,7 24,9 18,4 15,4 20 11 32 17 SE 1017,6 7 52 0,0
14.06.2019 12:00:00 22,3 14,2 24,9 24,5 17,8 15,3 15 8 26 14 SSE 1018,1 10 60 0,0
14.06.2019 11:00:00 21,9 12,2 24,0 23,5 17,2 15,3 16 9 28 15 SSE 1018,1 7 60 0,0
14.06.2019 10:00:00 20,5 14,1 22,8 21,5 16,7 15,3 12 7 20 11 S 1017,9 10 59 0,0
14.06.2019 09:00:00 18,6 14,5 20,9 19,2 16,4 15,3 14 7 20 11 S 1017,7 8 60 0,0
14.06.2019 08:00:00 17,1 14,2 18,1 16,7 16,3 15,3 14 8 22 12 S 1017,0 14 24 0,0
14.06.2019 07:00:00 15,9 14,2 16,5 15,8 16,3 15,3 13 7 21 11 SSE 1016,7 20 47 0,0
14.06.2019 06:00:00 14,7 13,2 14,0 14,4 16,5 15,3 13 7 19 11 SSE 1016,5 14 24 0,0
14.06.2019 05:00:00 14,0 13,1 13,0 14,0 16,8 15,3 11 6 20 11 SSE 1016,3 16 0 0,0
14.06.2019 04:00:00 14,6 13,5 13,6 14,2 17,1 15,3 16 9 21 11 SSE 1015,8 21 0 0,0
14.06.2019 03:00:00 14,3 13,1 13,1 14,4 17,4 15,3 14 8 23 12 S 1015,6 33 0 0,0
14.06.2019 02:00:00 14,3 12,3 13,0 15,0 17,7 15,3 14 8 23 12 SE 1015,5 37 0 0,0
14.06.2019 01:00:00 15,0 12,9 13,7 15,5 18,1 15,3 16 9 22 12 SE 1015,1 33 0 0,0
14.06.2019 00:00:00 13,5 12,4 13,1 15,9 18,5 15,3 14 8 18 10 ESE 1014,7 27 0 0,0
13.06.2019 23:00:00 14,3 12,5 12,7 16,5 18,8 15,3 11 6 14 8 E 1014,1 29 0 0,0
13.06.2019 22:00:00 15,0 12,8 13,9 17,4 19,2 15,3 4 2 51 28 E 1014,3 33 0 3,7
13.06.2019 21:00:00 17,6 12,9 17,2 19,1 19,4 15,3 8 4 16 9 ENE 1013,4 42 19 0,0
13.06.2019 20:00:00 19,5 11,5 20,2 20,3 19,6 15,3 12 6 16 9 E 1013,4 41 40 0,0
13.06.2019 19:00:00 18,8 13,1 18,9 20,3 19,7 15,3 9 5 20 11 WNW 1013,5 59 0 0,0
13.06.2019 18:00:00 20,0 13,9 20,1 21,8 19,8 15,3 11 6 22 12 ESE 1013,3 68 24 0,0
13.06.2019 17:00:00 20,9 12,7 22,2 22,7 19,7 15,3 13 7 36 19 SSE 1013,3 22 19 0,0
13.06.2019 16:00:00 22,0 11,7 23,7 23,9 19,4 15,3 18 10 32 18 S 1013,1 16 45 0,0
13.06.2019 15:00:00 22,5 12,3 24,7 25,5 18,9 15,3 18 10 29 16 S 1013,2 7 60 0,0
13.06.2019 14:00:00 21,6 13,2 24,1 25,2 18,3 15,3 16 9 34 18 S 1013,2 7 59 0,0
13.06.2019 13:00:00 20,8 13,9 23,3 24,6 17,7 15,3 20 11 29 16 SSE 1013,3 11 60 0,0
13.06.2019 12:00:00 20,0 12,8 22,5 23,6 17,0 15,3 17 9 25 13 S 1013,2 8 51 0,0
13.06.2019 11:00:00 19,7 14,4 22,7 21,5 16,5 15,3 14 8 24 13 S 1012,9 13 45 0,0

tt = Température de l'air
td = dewpoint
tt 5cm = Température de l'air 5cm
tt -5cm = Température de l'air -5cm
tt -20cm = Température de l'air -20cm
tt -100cm = Température de l'air -100cm
ff = Vitesse du vent
fx = gusts
dd = Direction du vent
ppp = reduced air pressure
vv = visibility
sd = Ensoleillement
rr = Quantités de précipitations

stations d'obs. à proximité